Regional Weather Roundup
Issued by NWS Dallas/Fort Worth, TX

Current Version | Previous Version | Text Only | Print | Product List | Glossary On
Versions: 1 2 3 4 5 6 7 8 9 10 11 12 13 14 15 16 17 18 19 20 21 22 23 24 25 26 27 28 29 30 31 32 33 34 35 36 37 38 39 40 41 42 43 44 45 46 47 48 49 50
045
ASUS44 KFWD 210515
RWRFWD
NORTH TEXAS HOURLY WEATHER ROUNDUP
NATIONAL WEATHER SERVICE FORT WORTH TX
1200 AM CDT SUN OCT 21 2018

NOTE: "FAIR" INDICATES FEW OR NO CLOUDS BELOW 12,000 FEET WITH NO
SIGNIFICANT WEATHER AND/OR OBSTRUCTIONS TO VISIBILITY.

TXZ118-119-210600-
DALLAS/FORT WORTH METROPLEX

CITY           SKY/WX    TMP DP  RH WIND       PRES   REMARKS
DFW AIRPORT    MOCLDY    56  48  74 CALM      30.32R
DALLAS LOVE    FAIR      58  47  66 CALM      30.32S
FTW MEACHAM    FAIR      54  49  83 NW3       30.33R
DAL-EXECUTIVE  FAIR      55  45  68 N5        30.31S
FTW-ALLIANCE   FAIR      55  48  77 NW7       30.34R
FTW-NAS-JRB    FAIR      55  49  80 NW7       30.34S
FTW-SPINKS     FAIR      53  49  86 N6        30.34F
ARLINGTON      FAIR      55  49  80 N7        30.32S
GRAND PRAIRIE  FAIR      58  46  63 N6        30.34S
ADDISON        FAIR      58  44  60 N3        30.34S
MESQUITE       FAIR      56  50  81 CALM      30.32S
LANCASTER      FAIR      55  49  80 N6        30.33S
$$

TXZ091>094-102>105-117-120-121-131>134-210600-
NORTH CENTRAL TEXAS

CITY           SKY/WX    TMP DP  RH WIND       PRES   REMARKS
SHRMAN/DENISON FAIR      52  48  87 CALM      30.34S
GAINESVILLE    FAIR      51  48  89 CALM      30.36S
BOWIE          FAIR      50  48  92 NW5       30.35S
BRIDGEPORT     FAIR      49  49 100 CALM      30.37S
DECATUR        FAIR      56  46  67 CALM      30.34S
DENTON         FAIR      51  48  89 NW5       30.33R
MCKINNEY       FAIR      53  49  86 NW6       30.32S
BONHAM         FAIR      50  48  95 NW3       30.33S
GREENVILLE     FAIR      55  52  88 CALM      30.32S
ROCKWALL       FAIR      55  49  81 N5        30.32S
TERRELL        FAIR      58  48  69 N5        30.31S
WAXAHACHIE     FAIR      58  48  69 N7        30.33F
CLEBURNE       FAIR      55  50  82 N7        30.34S
GRANBURY       FAIR      55  49  83 W3        30.35S
$$

TXZ083>090-098>101-113>116-127>130-139>142-154-155-210600-
WESTERN NORTH TEXAS

CITY           SKY/WX    TMP DP  RH WIND       PRES   REMARKS
WICHITA FALLS  FAIR      56  45  66 NW5       30.35S
WF-KICKAPOO    FAIR      52  48  87 W7        30.38S
VERNON         FAIR      54  48  81 CALM      30.38S
ABILENE        FAIR      52  47  83 CALM      30.38R
ABILENE-DYESS  FAIR      50  45  81 W3        30.37S
GRAHAM         FAIR      48  47  99 CALM      30.35S
CISCO          FAIR      54  48  82 N7        30.37R
EASTLAND       FAIR      52  46  79 N6        30.37R
MINERAL WELLS  FAIR      54  48  80 N6        30.34R
STEPHENVILLE   FAIR      55  48  77 CALM      30.37S
COMANCHE       FAIR      54  50  87 MISG      30.35S
BROWNWOOD      FAIR      57  48  72 N5        30.35R
COLEMAN        FAIR      54  47  79 N7        30.36R
BRADY          FAIR      55  52  88 N7        30.34S
$$

TXZ143>147-156>162-174-175-210600-
CENTRAL TEXAS

CITY           SKY/WX    TMP DP  RH WIND       PRES   REMARKS
WACO           FAIR      58  52  80 N8        30.30R
WACO-MCGREGOR  FAIR      57  53  86 N7        30.30S
HILLSBORO      FAIR      58  51  77 N7        30.30S
CORSICANA      FAIR      58  49  72 MISG      30.30S
MEXIA          FAIR      58  49  70 N6        30.28R
HEARNE         FAIR      58  57  95 NW3       30.27S
CAMERON        FAIR      60  55  85 N7        30.27S
TEMPLE         FAIR      58  54  86 N7        30.30R
KILLEEN        NOT AVBL
KILLEEN-SKYLRK FAIR     N/A N/A N/A N9        30.30S
FORT HOOD      MOCLDY    59  51  76 N9        30.26S
GATESVILLE     FAIR      59  48  67 N5        30.33S
HAMILTON       FAIR      55  49  80 N6        30.33S
LAMPASAS       FAIR      58  48  71 NE6       30.30S
$$

TXZ095>097-106>112-122>126-135>138-148>153-164>167-210600-
EAST TEXAS

CITY           SKY/WX    TMP DP  RH WIND       PRES   REMARKS
PARIS          FAIR      53  48  83 N6        30.31F
SULPHUR SPRNGS FAIR      57  51  80 NW3       30.33S
MOUNT PLEASANT FAIR      56  47  71 CALM      30.31R
GILMER         CLOUDY    55  50  85 NW3       30.30S
MINEOLA        FAIR      55  50  82 CALM      30.29F
TYLER          FAIR      57  49  74 N5        30.28S
LONGVIEW       FAIR      56  52  86 N3        30.27R
MARSHALL       FAIR      53  50  90 CALM      30.30S
ATHENS         FAIR      55  50  82 CALM      30.28S HAZE
PALESTINE      FAIR      57  52  82 N6        30.28S
JACKSONVILLE   FAIR      56  53  87 N6        30.28F
HENDERSON      FAIR      56  52  86 MISG      30.28F
NACOGDOCHES      N/A     54  54 100 N3        30.26R FOG
LUFKIN         FAIR      55  55 100 N5        30.23S FOG
$$

SUPPLEMENTAL OBSERVATIONS (NWS FORT WORTH AREA)

CITY           SKY/WX    TMP DP  RH WIND       PRES   REMARKS
CADDO GRASSLND   N/A     50  48  93 CALM        N/A
LBJ GRASSLAND    N/A     55  46  71 N1          N/A
POSSUM KINGDOM   N/A     54  50  87 S2          N/A
GRANBURY         N/A     54  48  82 W5          N/A
COMANCHE         N/A     54  48  82 N7          N/A
MCGREGOR         N/A     59  50  72 N8          N/A
TEMPLE           N/A     63  50  63 N14         N/A
LAKE LIMESTONE   N/A     61  54  77 N10         N/A
PALESTINE        N/A     57  54  88 N6          N/A
$$

SUPPLEMENTAL OBSERVATIONS (NWS NORMAN AREA)

CITY           SKY/WX    TMP DP  RH WIND       PRES   REMARKS
GOODLETT         N/A     53  44  72 S3        30.38S
ODELL            N/A     50  46  86 S1        30.39S
CROWELL          N/A     52  46  80 W3        30.39S
KNOX CITY        N/A     49  47  93 SW2       30.40S
SEYMOUR          N/A     50  47  89 NW2       30.38S
MILLERS CREEK    N/A     52  50  93 SW3         N/A
$$

SUPPLEMENTAL OBSERVATIONS (NWS SAN ANGELO AREA)

CITY           SKY/WX    TMP DP  RH WIND       PRES   REMARKS
WEINERT          N/A     52  48  86 CALM      30.39S
HASKELL          N/A     51  47  87 N6        30.39S
THROCKMORTON     N/A     51  49  93 W2        30.38F
STAMFORD         N/A     52  50  93 N5        30.39S
CLYDE            N/A     52  45  78 NE7       30.39S
HAMBY            N/A     46  45  93 CALM        N/A
IVIE RESERVOIR   N/A     55  46  71 N5          N/A
COLORADO BEND    N/A     57  48  72 N2G13       N/A
$$

SUPPLEMENTAL OBSERVATIONS (NWS SHREVEPORT AREA)

CITY           SKY/WX    TMP DP  RH WIND       PRES   REMARKS
TEXARKANA        N/A     48  46  93 CALM        N/A
LINDEN           N/A     54  50  87 CALM        N/A
CADDO LAKE       N/A     50  46  87 CALM        N/A
LUFKIN           N/A     55  54  94 MISG        N/A
N SABINE NF      N/A     52  50  93 MISG        N/A
$$

SUPPLEMENTAL OBSERVATIONS ARE A COLLECTION OF AUTOMATED INSTRUMENTS
THAT ARE MAINTAINED BY A VARIETY OF FEDERAL AND STATE AGENCIES.
CERTAIN ELEMENTS...SUCH AS HUMIDITY VALUES AND SUSTAINED WIND
SPEEDS...MAY BE APPROXIMATED.





USA.gov is the U.S. government's official web portal to all federal, state and local government web resources and services.